YAOGAN 21

Last updated on Wed Apr 24 2024 00:02:24 GMT+0000 (Coordinated Universal Time)

1 40143U 14053A 24114.59491290 .00018768 00000+0 77441-3 0 9991 2 40143 97.2573 174.4349 0006225 355.6249 4.4933 15.24072622535465

Satellite not in orbit

YAOGAN 21